{"data":{"norad_id":68856,"intl_designator":"2026-094T","name":"STARLINK-37483","alt_names":[],"object_type":"PAYLOAD","status":"ACTIVE","operator":null,"country":"US","launch_date":"2026-04-26","launch_site_code":"AFWTR","launch_vehicle":null,"mission":null,"orbit_class":"UNKNOWN","rcs_meters":null,"size_class":null,"mass_kg":null,"dimensions":null,"purposes":["comms"],"wikipedia_slug":null,"has_3d_model":false,"image_url":null,"decayed_at":null,"tle_current":{"epoch":"2026-05-25T04:00:03.998880Z","epoch_age_seconds":57698,"freshness":"FRESH","line1":"1 68856U 26094T   26145.16671295 -.00000944  00000+0 -15696-4 0  9998","line2":"2 68856  97.2845 159.9531 0001425  66.4690 215.3879 15.49174746  5677","mean_motion":15.49174746,"eccentricity":0.0001425,"inclination_deg":97.2845,"raan_deg":159.9531,"arg_perigee_deg":66.469,"mean_anomaly_deg":215.3879,"bstar":-1.5696e-5,"rev_number":567,"period_min":92.952715871344,"perigee_km":418.17035075288,"apogee_km":420.10757440222,"semimajor_km":6797.2759625776,"source":"CELESTRAK","updated_at":"2026-05-25T13:38:22.063968Z"}}}